Left ArrowRight Arrow

Hourly Observations for March 24, 2019

Temp ( °F °C ) Dew Point ( °F °C ) Humidity (%) Winds ( mph kmh ) Pressure ( in mb ) Visibility ( mi km ) Precip ( " mm )
12:56 am 00:56 Cloudy 50 10 43 6 76 76 ESE 12 19 29.97 1015 10 16 0.00 0.00
1:33 am 01:33 Cloudy with Rain 50 10 43 6 76 76 ESE 10 17 29.96 1015 9 14 0.00 0.00
1:40 am 01:40 Cloudy with Rain 50 10 43 6 76 76 ESE 9 15 29.96 1015 4 6 0.00 0.00
2:05 am 02:05 Mostly Cloudy with Light Rain 50 10 43 6 76 76 E 6 9 29.96 1015 8 13 0.00 0.00
2:25 am 02:25 Cloudy with Drizzle 50 10 43 6 76 76 ESE 7 11 29.96 1015 4 6 0.00 0.00
2:56 am 02:56 Cloudy with Drizzle 48 9 45 7 87 87 E 7 11 29.96 1014 8 13 0.00 0.03
3:49 am 03:49 Cloudy with Light Rain 48 9 45 7 87 87 E 6 9 29.94 1014 4 6 0.03 0.76
3:56 am 03:56 Cloudy with Light Rain 48 9 45 7 87 87 E 5 7 29.94 1014 5 8 0.03 0.76
4:56 am 04:56 Partly Cloudy with Light Rain 48 9 45 7 87 87 E 7 11 29.93 1013 9 14 0.02 0.51
5:31 am 05:31 Cloudy with Drizzle 48 9 45 7 87 87 E 6 9 N/A 10 16 0.00 0.00
5:56 am 05:56 Cloudy with Drizzle 48 9 45 7 87 87 E 7 11 29.93 1013 10 16 0.01 0.25
6:39 am 06:39 Cloudy 48 9 45 7 87 87 E 7 11 29.93 1013 10 16 0.00 0.00
6:56 am 06:56 Cloudy 48 9 45 7 87 87 ENE 5 7 N/A 10 16 0.00 0.00
7:56 am 07:56 Cloudy 48 9 45 7 87 87 ENE 5 7 29.95 1014 10 16 0.00 0.00
8:56 am 08:56 Cloudy 48 9 45 7 87 87 NE 5 7 29.96 1014 10 16 0.00 0.00
9:56 am 09:56 Cloudy 48 9 45 7 87 87 NNE 5 7 29.97 1015 10 16 0.00 0.00
10:56 am 10:56 Cloudy 48 9 45 7 87 87 N 6 9 29.98 1015 9 14 0.00 0.00
11:56 am 11:56 Cloudy with Mist and Fog 48 9 45 7 87 87 NNE 5 7 29.97 1015 6 10 0.00 0.00
12:56 pm 12:56 Mostly Cloudy with Mist and Fog 48 9 45 7 87 87 N 7 11 30.01 1016 5 8 0.00 0.00
1:56 pm 13:56 Cloudy 48 9 45 7 87 87 NNW 7 11 30.02 1016 10 16 0.00 0.00
2:56 pm 14:56 Cloudy 48 9 45 7 87 87 NNW 7 11 30.02 1016 10 16 0.00 0.00
3:56 pm 15:56 Cloudy 46 8 43 6 87 87 N 8 13 30.06 1018 10 16 0.00 0.00
4:36 pm 16:36 Cloudy 46 8 43 6 87 87 N 6 9 30.06 1018 10 16 0.00 0.00
4:56 pm 16:56 Cloudy 46 8 43 6 87 87 N 8 13 30.06 1018 10 16 0.00 0.00
5:06 pm 17:06 Cloudy 46 8 43 6 87 87 N 9 15 30.06 1018 10 16 0.00 0.00
5:46 pm 17:46 Mostly Cloudy 46 8 43 6 87 87 NNE 7 11 30.07 1018 10 16 0.00 0.00
5:56 pm 17:56 Mostly Cloudy 46 8 43 6 87 87 N 8 13 30.07 1018 10 16 0.00 0.00
6:06 pm 18:06 Mostly Cloudy 46 8 43 6 87 87 N 10 17 30.07 1018 10 16 0.00 0.00
6:56 pm 18:56 Cloudy 46 8 43 6 87 87 N 8 13 30.11 1020 10 16 0.00 0.00
7:26 pm 19:26 Cloudy 46 8 43 6 87 87 N 7 11 30.11 1020 10 16 0.00 0.00
7:56 pm 19:56 Cloudy 46 8 43 6 87 87 N 10 17 30.12 1020 10 16 0.00 0.00
8:36 pm 20:36 Mostly Cloudy 46 8 43 6 87 87 N 9 15 30.12 1020 10 16 0.00 0.00
8:46 pm 20:46 Cloudy 46 8 43 6 87 87 N 8 13 30.12 1020 10 16 0.00 0.00
8:56 pm 20:56 Cloudy with Drizzle 46 8 43 6 87 87 N 9 15 30.15 1021 8 13 0.00 0.00
9:01 pm 21:01 Cloudy with Mist and Fog 46 8 43 6 87 87 N 9 15 30.15 1021 8 13 0.00 0.00
9:30 pm 21:30 Cloudy with Mist and Fog 46 8 43 6 87 87 N 10 17 30.15 1021 6 10 0.00 0.00
9:56 pm 21:56 Cloudy with Mist and Fog 46 8 43 6 87 87 N 7 11 30.18 1022 7 11 0.00 0.00
10:16 pm 22:16 Cloudy with Mist and Fog 46 8 43 6 87 87 N 8 13 30.18 1022 8 13 0.00 0.00
10:33 pm 22:33 Cloudy 46 8 43 6 87 87 N 8 13 30.18 1022 10 16 0.00 0.00
10:43 pm 22:43 Cloudy 46 8 43 6 87 87 N 10 17 30.20 1023 10 16 0.00 0.00
10:56 pm 22:56 Cloudy 46 8 43 6 87 87 N 8 13 30.20 1023 10 16 0.00 0.00
11:46 pm 23:46 Mostly Cloudy 46 8 41 5 82 82 N 9 15 30.20 1023 10 16 0.00 0.00
11:56 pm 23:56 Mostly Cloudy 46 8 41 5 82 82 N 9 15 30.20 1023 10 16 0.00 0.00

Powered by Vaisala Xweather